sat.trackr.live / text

‹ back to catalog

TRANSPORTER-14 OBJECT BQ

NORAD 64590 · 2025-135BQ

PAYLOAD ACTIVE UNKNOWN

§ Identity

Operator
Country
TBD
Launch date
2025-06-23
Launch site
AFWTR
Launch vehicle
Mass (kg)
RCS (m²)

External: N2YO · Heavens-Above · Gunter

§ Orbital elements

Epoch: 2026-09-21T19:47:16.176192Z

Period
96.36 min
Inclination
97.7799°
Eccentricity
0.0005796
Mean motion
14.94327113 rev/d
Perigee alt
580.4 km
Apogee alt
588.5 km
Semi-major
6,962.6 km
B*
7.3372e-5
RAAN
18.3121°
Arg perigee
25.2346°
Mean anomaly
334.9156°
Rev number
6,833

§ Raw data

TRANSPORTER-14 OBJECT BQ1 64590U 25135BQ  26264.82449278  .00000731  00000+0  73372-4 0  99902 64590  97.7799  18.3121 0005796  25.2346 334.9156 14.94327113 68335

JSON: /api/v1/satellites/64590 · /tle

For live sub-satellite position, see the globe view (requires WebGL).

§ Visibility from observer

Set your observer location to see the next 7 days of passes ≥ 10°. The values pass through the URL so the page stays shareable.

No JS? Fill the form by hand. The geolocation button needs JavaScript.